FW6343 Weather Reports


Display with metric or nautical units.
time (UTC)temp
F
wind
direction
speed
MPH
gust
MPH
rain 1hr
in
rain 24hr
in
rain mn
in
humidity
%
barometer
mb
20260505193441 79 218 2.0 9.0 0.00 0.00 0.00 36 1015.3
20260505191927 79 206 6.0 12.0 0.00 0.00 0.00 37 1015.6
20260505190444 78 351 3.0 9.0 0.00 0.00 0.00 38 1015.8
20260505190326 78 351 3.0 9.0 0.00 0.00 0.00 38 1015.8
20260505184938 78 225 4.0 10.0 0.00 0.00 0.00 39 1016.1
20260505183450 78 260 4.0 10.0 0.00 0.00 0.00 37 1016.2
20260505182009 77 194 3.0 11.0 0.00 0.00 0.00 40 1016.1
20260505181900 77 194 3.0 11.0 0.00 0.00 0.00 40 1016.1
20260505180539 76 192 3.0 10.0 0.00 0.00 0.00 39 1016.5
20260505180417 76 192 3.0 10.0 0.00 0.00 0.00 39 1016.5
20260505174952 76 276 3.0 12.0 0.00 0.00 0.00 41 1016.7
20260505174842 76 276 3.0 12.0 0.00 0.00 0.00 41 1016.7
20260505173504 76 185 1.0 13.0 0.00 0.00 0.00 39 1016.9
20260505172022 77 214 5.0 14.0 0.00 0.00 0.00 39 1017.1
20260505171835 77 214 5.0 14.0 0.00 0.00 0.00 39 1017.1
20260505170459 75 263 2.0 9.0 0.00 0.00 0.00 44 1017.2
20260505170354 75 263 2.0 9.0 0.00 0.00 0.00 44 1017.2
20260505165026 74 213 3.0 11.0 0.00 0.00 0.00 45 1017.0
20260505164841 74 213 3.0 11.0 0.00 0.00 0.00 45 1017.0
20260505163546 74 168 3.0 9.0 0.00 0.00 0.00 47 1017.1
20260505163348 74 168 3.0 9.0 0.00 0.00 0.00 47 1017.1
20260505162009 73 139 1.0 5.0 0.00 0.00 0.00 51 1017.3
20260505161849 73 139 1.0 5.0 0.00 0.00 0.00 51 1017.3
20260505160512 71 205 2.0 6.0 0.00 0.00 0.00 51 1017.4
20260505160343 71 205 2.0 6.0 0.00 0.00 0.00 51 1017.4
20260505152014 67 0 0.0 3.0 0.00 0.00 0.00 57 1017.9
20260505151908 67 0 0.0 3.0 0.00 0.00 0.00 57 1017.9
20260505150357 67 0 0.0 5.0 0.00 0.00 0.00 56 1017.8
20260505140512 62 0 0.0 5.0 0.00 0.00 0.00 63 1017.6
20260505140324 62 0 0.0 5.0 0.00 0.00 0.00 63 1017.6
20260505124920 56 0 0.0 0.0 0.00 0.00 0.00 74 1017.3
20260505123414 55 0 0.0 0.0 0.00 0.00 0.00 77 1017.4
20260505121934 53 0 0.0 0.0 0.00 0.00 0.00 79 1017.2
20260505120455 52 0 0.0 0.0 0.00 0.00 0.00 84 1016.7
20260505114905 49 0 0.0 0.0 0.00 0.00 0.00 87 1016.7
20260505113354 48 0 0.0 0.0 0.00 0.00 0.00 87 1016.5
20260505111917 47 0 0.0 0.0 0.00 0.00 0.00 87 1016.4
20260505110409 48 0 0.0 0.0 0.00 0.00 0.00 86 1016.6
20260505101917 47 0 0.0 0.0 0.00 0.00 0.00 85 1016.3
20260505100429 47 0 0.0 0.0 0.00 0.00 0.00 85 1016.3
20260505095011 47 0 0.0 0.0 0.00 0.00 0.00 84 1016.1
20260505094908 47 0 0.0 0.0 0.00 0.00 0.00 84 1016.1
20260505093411 47 0 0.0 0.0 0.00 0.00 0.00 84 1016.0
20260505092003 47 0 0.0 0.0 0.00 0.00 0.00 83 1016.1
20260505091839 47 0 0.0 0.0 0.00 0.00 0.00 83 1016.1
20260505090357 48 0 0.0 0.0 0.00 0.00 0.00 82 1016.2
20260505084918 48 0 0.0 0.0 0.00 0.00 0.00 82 1016.2
20260505083507 49 0 0.0 0.0 0.00 0.00 0.00 81 1015.8
20260505083342 49 0 0.0 0.0 0.00 0.00 0.00 81 1015.8
20260505082002 49 0 0.0 0.0 0.00 0.00 0.00 80 1015.8
20260505080445 50 0 0.0 0.0 0.00 0.00 0.00 80 1015.6
20260505074911 50 0 0.0 0.0 0.00 0.00 0.00 80 1015.6
20260505073530 51 0 0.0 0.0 0.00 0.00 0.00 80 1015.6
20260505073340 51 0 0.0 0.0 0.00 0.00 0.00 80 1015.6
20260505071929 51 0 0.0 0.0 0.00 0.00 0.00 80 1015.7
20260505070432 52 0 0.0 0.0 0.00 0.00 0.00 80 1015.7
20260505064951 52 0 0.0 0.0 0.00 0.00 0.00 79 1015.9
20260505064826 52 0 0.0 0.0 0.00 0.00 0.00 79 1015.9
20260505063534 52 0 0.0 0.0 0.00 0.00 0.00 79 1016.0
20260505063351 52 0 0.0 0.0 0.00 0.00 0.00 79 1016.0
20260505062027 52 0 0.0 0.0 0.00 0.00 0.00 77 1016.0
20260505061837 52 0 0.0 0.0 0.00 0.00 0.00 77 1016.0
20260505060526 53 0 0.0 0.0 0.00 0.00 0.00 76 1015.9
20260505060417 53 0 0.0 0.0 0.00 0.00 0.00 76 1015.9
20260505054955 53 0 0.0 0.0 0.00 0.00 0.00 77 1015.9
20260505054831 53 0 0.0 0.0 0.00 0.00 0.00 77 1015.9
20260505053534 54 0 0.0 0.0 0.00 0.00 0.00 76 1016.0
20260505053333 54 0 0.0 0.0 0.00 0.00 0.00 76 1016.0
20260505051918 54 0 0.0 0.0 0.00 0.00 0.00 75 1016.0
20260505050456 55 0 0.0 0.0 0.00 0.00 0.00 74 1016.1
20260505040445 58 0 0.0 0.0 0.00 0.00 0.00 70 1016.2
20260505034943 58 0 0.0 0.0 0.00 0.00 0.00 68 1016.2
20260505033425 59 0 0.0 0.0 0.00 0.00 0.00 69 1016.2
20260505031929 60 0 0.0 0.0 0.00 0.00 0.00 68 1016.2
20260505030428 60 0 0.0 0.0 0.00 0.00 0.00 68 1016.3
20260505024931 61 0 0.0 0.0 0.00 0.00 0.00 66 1016.3
20260505023357 62 0 0.0 0.0 0.00 0.00 0.00 64 1016.2
20260505022017 62 0 0.0 0.0 0.00 0.00 0.00 63 1015.9
20260505021828 62 0 0.0 0.0 0.00 0.00 0.00 63 1015.9
20260505020511 63 0 0.0 0.0 0.00 0.00 0.00 61 1015.8
20260505020327 63 0 0.0 0.0 0.00 0.00 0.00 61 1015.8
20260505014908 64 0 0.0 0.0 0.00 0.00 0.00 59 1015.8
20260505013449 65 0 0.0 0.0 0.00 0.00 0.00 59 1015.6
20260505011943 66 0 0.0 0.0 0.00 0.00 0.00 57 1015.6
20260505010405 67 0 0.0 0.0 0.00 0.00 0.00 56 1015.2
20260505005000 69 0 0.0 0.0 0.00 0.00 0.00 52 1015.2
20260505004853 69 0 0.0 0.0 0.00 0.00 0.00 52 1015.2
20260505003458 70 0 0.0 0.0 0.00 0.00 0.00 53 1015.1
20260505002020 72 0 0.0 0.0 0.00 0.00 0.00 49 1015.0
20260505001856 72 0 0.0 0.0 0.00 0.00 0.00 49 1015.0
20260505000514 73 0 0.0 0.0 0.00 0.00 0.00 49 1015.1
20260505000338 73 0 0.0 0.0 0.00 0.00 0.00 49 1015.1
20260504235020 74 0 0.0 0.0 0.00 0.00 0.00 48 1015.0
20260504234835 74 0 0.0 0.0 0.00 0.00 0.00 48 1015.0
20260504233449 74 0 0.0 0.0 0.00 0.00 0.00 47 1014.7
20260504231833 74 0 0.0 1.0 0.00 0.00 0.00 44 1014.8
20260504230422 75 0 0.0 5.0 0.00 0.00 0.00 43 1014.7
20260504224911 76 0 0.0 5.0 0.00 0.00 0.00 40 1014.7
20260504223422 76 0 2.0 7.0 0.00 0.00 0.00 39 1014.7
20260504221909 76 0 1.0 6.0 0.00 0.00 0.00 40 1014.7
20260504220429 77 0 1.0 8.0 0.00 0.00 0.00 36 1014.8
20260504215009 76 208 0.0 8.0 0.00 0.00 0.00 36 1014.7
20260504214910 76 208 0.0 8.0 0.00 0.00 0.00 36 1014.7
20260504213407 76 205 2.0 7.0 0.00 0.00 0.00 35 1014.8
20260504211951 76 177 1.0 8.0 0.00 0.00 0.00 37 1014.8
20260504210527 76 0 0.0 5.0 0.00 0.00 0.00 39 1015.0
20260504210357 76 0 0.0 5.0 0.00 0.00 0.00 39 1015.0
20260504204940 76 0 3.0 6.0 0.00 0.00 0.00 38 1015.0
20260504203437 76 247 2.0 9.0 0.00 0.00 0.00 36 1015.0
20260504201937 76 183 2.0 9.0 0.00 0.00 0.00 35 1015.1
20260504200448 77 222 2.0 10.0 0.00 0.00 0.00 33 1015.2
20260504200342 77 222 2.0 10.0 0.00 0.00 0.00 33 1015.2
20260504194845 77 182 4.0 9.0 0.00 0.00 0.00 35 1015.3